Wind_Speed
16 18 17 16 12 9 12 12 14 17 17 16 20 30 24 19 18 16 17 17 18 21 21 23 20 20 22 27 32 37 38 38 37 33 31 30 27 25 26 26 24 23 22
19 21 17 18 16 15 13 10 10 14 15 15 29 32 27 17 16 15 17 16 17 22 23 23 22 21 22 23 27 31 37 36 36 34 34 28 28 25 29 31 33 31 29
19 24 21 22 21 18 16 16 16 14 9 12 23 29 32 19 16 15 16 16 18 18 20 22 20 21 23 23 26 28 31 34 35 35 33 31 28 29 30 33 36 37 34
26 21 22 21 19 16 9 4 3 8 2 8 13 24 26 24 15 14 16 17 19 20 22 22 23 18 28 28 22 25 25 28 32 32 32 30 27 28 28 30 31 31 33
30 29 25 23 22 19 13 16 3 9 2 9 10 17 22 20 16 15 14 14 15 20 21 21 26 26 17 24 26 22 23 23 26 29 31 31 29 28 28 28 30 31 30
24 28 27 33 27 21 11 10 8 9 1 4 9 17 20 18 14 17 14 14 21 21 21 19 20 21 20 23 25 20 21 22 25 25 27 29 30 32 29 33 32 34 33
24 21 22 26 27 28 26 11 13 8 3 2 13 17 17 17 12 15 13 20 21 20 24 15 15 20 21 17 21 21 26 19 20 19 25 26 26 29 31 33 31 30 29
23 23 22 24 19 23 18 14 17 8 5 5 9 12 14 15 11 11 12 17 15 14 19 21 15 19 20 23 22 26 23 26 17 18 20 22 24 22 25 29 31 31 34
24 25 28 25 19 11 18 17 19 14 5 1 8 13 11 12 11 8 12 21 25 21 19 20 22 21 21 26 20 21 23 22 18 13 15 20 22 19 20 21 25 26 27
36 31 30 27 19 15 23 19 19 13 10 4 4 10 9 11 10 9 9 17 18 19 18 20 21 22 22 25 21 20 21 17 14 9 9 16 19 17 17 17 15 16 20
43 37 35 27 18 18 23 20 18 15 9 1 4 6 9 11 11 7 11 8 16 18 22 19 19 20 23 22 20 16 21 20 15 8 8 12 16 16 14 14 13 12 16
43 43 32 23 23 23 21 20 15 10 7 0 2 8 6 7 11 10 12 11 10 7 9 18 19 19 17 18 26 17 21 22 19 10 10 11 12 14 16 14 12 10 13
44 34 30 29 35 25 21 18 12 10 5 4 6 5 5 7 6 10 6 3 6 6 7 8 10 14 12 18 25 26 19 22 20 11 11 12 12 13 15 15 13 13 13
47 36 36 42 27 25 20 18 14 7 7 9 4 4 5 7 6 3 6 4 6 7 7 6 7 13 13 19 24 28 25 16 19 18 13 12 11 13 14 14 15 15 11
48 41 28 38 33 27 18 18 14 8 7 11 2 5 4 6 6 4 6 3 4 4 7 9 8 10 17 22 24 25 26 16 15 21 15 12 11 12 15 15 11 10 9
56 41 34 34 35 32 21 13 10 12 11 9 12 5 4 4 3 6 11 7 2 9 8 6 7 12 16 19 21 24 23 13 10 13 15 15 14 11 9 5 7 6 6
46 40 40 37 34 29 26 18 12 13 15 15 8 9 4 4 1 4 8 7 2 2 6 8 9 13 15 17 20 23 21 13 7 7 10 12 11 9 7 4 3 4 2
40 42 36 32 31 34 32 23 16 15 12 11 8 9 8 6 9 12 7 6 1 4 6 10 12 13 14 18 19 21 21 15 4 2 5 8 9 8 5 5 2 4 4
31 36 41 31 29 25 25 22 21 16 17 11 10 1 5 6 11 14 10 8 10 7 12 16 14 15 16 21 19 21 20 12 3 8 5 6 6 7 7 1 3 4 6
24 28 37 31 23 26 25 23 19 18 11 11 8 6 7 7 13 15 16 11 9 12 15 16 16 17 18 19 22 21 23 16 2 11 9 6 7 7 7 7 5 6 6
16 21 26 25 24 22 21 23 25 18 16 15 11 10 13 10 15 18 19 19 13 15 15 17 18 19 18 20 22 19 21 12 2 12 9 6 5 8 7 6 8 8 8
19 21 18 19 16 20 19 21 22 20 16 17 12 11 9 9 12 17 21 18 16 14 15 16 18 19 18 20 20 19 17 7 4 9 8 6 6 5 4 7 7 7 7
21 17 17 17 17 18 21 26 22 21 20 16 15 10 10 11 11 12 12 14 14 13 12 16 17 18 19 18 16 17 12 10 8 11 7 3 3 3 1 6 5 4 3
20 23 26 24 25 26 26 27 26 26 24 20 16 15 11 13 10 11 11 12 13 14 15 18 17 16 14 14 14 15 12 14 9 10 7 1 4 5 6 6 8 8 4
9 13 19 25 29 28 30 29 30 28 24 24 19 17 11 13 10 12 15 15 15 15 18 19 18 14 11 12 12 9 10 13 12 8 5 2 1 5 7 7 8 10 9
8 9 11 13 18 24 26 30 33 29 27 22 20 16 13 10 8 10 14 16 16 17 19 19 15 15 13 12 8 2 9 7 9 8 7 4 1 1 3 3 4 8 14
Wind_Direction
249 233 234 228 210 262 299 317 342 21 21 38 24 36 41 58 67 70 65 62 56 55 50 49 46 53 48 49 45 40 45 51 51 53 55 63 70 77 73 68 68 72 75
242 228 219 222 236 260 273 292 0 343 8 22 45 39 36 63 63 63 60 60 56 53 50 45 48 50 42 42 45 40 42 46 53 54 53 65 67 81 77 71 74 75 80
241 234 223 236 245 255 272 271 269 306 359 38 31 41 39 43 64 62 50 56 47 44 40 47 43 49 41 41 42 38 41 41 54 53 49 56 71 79 77 77 77 80 81
212 224 229 223 229 231 217 209 310 303 166 335 351 36 39 38 63 59 57 57 54 43 43 49 43 48 43 38 32 32 35 43 48 54 55 53 68 72 77 77 78 81 85
224 225 215 213 233 242 259 266 216 159 183 335 326 21 23 43 63 62 61 60 52 51 54 55 47 39 43 29 34 33 26 42 44 58 62 62 66 72 76 78 80 84 79
231 225 230 226 229 212 247 205 188 143 29 302 16 13 21 49 67 68 62 60 67 72 57 54 53 42 42 34 36 38 33 45 38 57 64 68 74 68 75 80 84 88 88
226 234 229 232 235 229 249 234 166 139 124 8 39 30 33 46 51 61 54 85 72 56 50 48 53 23 40 27 29 41 38 37 30 45 66 69 75 71 76 83 82 81 84
215 225 213 209 249 245 230 212 184 189 127 44 34 33 25 43 50 60 45 85 65 51 52 31 25 23 31 24 30 36 35 27 33 56 61 74 76 81 78 78 78 82 82
201 210 203 211 234 239 198 183 170 180 194 73 35 16 23 35 53 73 60 48 49 48 45 22 19 19 19 21 30 31 29 27 32 81 64 80 81 87 87 85 85 84 75
193 193 225 216 213 218 184 167 177 183 213 213 338 13 34 45 65 85 80 50 51 38 29 14 7 10 19 24 35 30 40 25 38 79 98 84 83 93 98 93 85 71 58
192 192 194 189 171 202 185 183 180 203 204 100 345 42 53 43 64 103 81 51 50 17 17 8 2 360 9 24 31 31 23 40 48 49 118 109 80 80 100 102 91 72 62
189 190 213 196 199 200 186 186 194 226 187 196 21 56 48 32 39 102 103 87 77 54 343 348 355 351 14 22 27 23 26 36 30 40 145 119 96 83 80 105 98 89 68
177 166 193 187 179 182 168 175 190 183 160 182 115 95 58 28 31 126 134 104 49 33 356 358 358 0 15 26 29 25 30 37 46 66 135 126 107 94 79 94 89 87 87
180 173 183 196 179 187 190 206 187 200 188 183 164 74 30 2 11 110 125 90 7 352 9 353 342 11 28 29 25 19 27 35 42 57 105 121 114 107 81 99 101 106 95
180 175 179 190 200 202 203 184 198 190 188 210 102 54 24 9 3 143 143 114 8 351 15 355 340 12 17 24 18 13 14 25 43 54 77 106 129 107 84 75 120 118 92
178 184 193 188 194 208 205 202 204 223 184 239 248 282 322 50 30 148 139 117 353 333 316 346 6 21 15 17 12 11 7 21 25 50 46 70 96 104 106 88 78 148 107
187 192 194 201 210 197 202 229 232 222 218 243 258 289 316 278 251 173 160 158 42 50 25 6 15 18 6 2 5 6 6 12 15 36 53 56 71 81 88 123 99 214 234
189 196 198 211 223 214 223 229 224 213 224 234 263 266 341 235 226 195 183 206 312 298 347 329 319 351 350 350 354 1 359 351 356 26 72 71 71 85 59 49 75 87 240
183 193 193 191 200 214 211 218 208 233 242 247 253 185 356 242 196 194 200 214 220 251 322 323 308 329 328 338 342 349 350 349 314 162 131 96 105 95 108 40 97 104 74
179 188 203 199 204 212 219 217 219 224 225 260 266 270 321 316 172 205 222 226 234 274 300 302 330 318 320 332 341 349 349 341 333 165 151 147 118 115 112 136 133 133 125
155 172 198 208 214 216 218 215 205 220 235 269 250 270 303 308 196 202 216 230 252 268 285 306 312 314 322 333 342 351 347 345 118 153 148 143 109 100 125 134 165 135 115
171 173 180 187 199 199 201 212 221 231 260 254 253 283 301 273 208 210 223 232 245 271 291 304 306 313 324 332 341 350 348 14 113 153 137 101 96 92 138 145 136 172 133
192 207 218 226 223 223 226 231 241 244 246 253 254 270 280 246 218 214 230 241 250 266 292 310 309 315 327 325 339 354 358 55 130 146 150 104 56 64 293 227 204 152 149
190 200 207 215 222 219 222 228 229 244 240 248 258 269 249 229 228 236 235 239 246 264 286 298 307 318 323 322 339 4 31 64 112 144 159 123 14 15 345 291 263 249 262
169 200 210 217 227 231 229 236 238 245 237 238 250 258 237 219 231 241 240 249 257 275 295 300 310 304 304 316 334 27 46 52 83 143 162 270 235 338 356 340 285 272 281
105 159 185 209 227 232 233 233 236 239 248 241 252 239 221 222 244 261 260 262 274 290 294 300 303 297 295 307 319 60 98 69 76 127 129 147 168 328 311 2 344 279 289
Height
11028 11030 11032 11033 11033 11033 11033 11033 11032 11031 11030 11029 11026 11020 11017 11014 11012 11011 11009 11007 11006 11003 11001 10999 10998 10996 10993 10992 10989 10985 10980 10976 10972 10968 10964 10961 10958 10957 10957 10955 10952 10950 10949
11029 11029 11031 11032 11032 11032 11034 11034 11033 11032 11031 11030 11026 11023 11018 11016 11015 11014 11010 11009 11007 11005 11002 11001 11000 10999 10996 10994 10991 10989 10985 10982 10978 10973 10970 10967 10965 10963 10961 10959 10955 10953 10953
11025 11026 11029 11030 11030 11031 11033 11033 11032 11032 11032 11031 11027 11024 11021 11018 11016 11015 11013 11011 11008 11008 11006 11004 11002 11001 10999 10997 10994 10992 10989 10986 10982 10978 10975 10972 10970 10968 10965 10962 10960 10958 10957
11022 11024 11026 11028 11029 11031 11032 11032 11030 11031 11031 11030 11028 11024 11022 11019 11017 11017 11014 11013 11011 11010 11009 11007 11005 11003 11001 10999 10997 10995 10992 10989 10986 10983 10980 10977 10974 10972 10969 10967 10965 10963 10963
11016 11020 11022 11025 11027 11030 11031 11031 11031 11030 11029 11030 11028 11026 11023 11019 11018 11019 11016 11014 11014 11013 11012 11010 11007 11006 11004 11002 10999 10998 10995 10993 10990 10987 10984 10982 10979 10977 10974 10972 10970 10968 10967
11012 11016 11019 11021 11025 11028 11030 11030 11031 11029 11029 11029 11027 11026 11025 11020 11020 11019 11018 11017 11015 11016 11014 11012 11011 11008 11006 11004 11003 11000 10998 10996 10995 10991 10988 10986 10984 10982 10979 10977 10975 10974 10973
11008 11011 11015 11019 11021 11025 11027 11030 11029 11029 11030 11029 11027 11026 11025 11022 11021 11021 11019 11019 11018 11017 11016 11015 11012 11010 11008 11006 11004 11002 11001 10999 10998 10995 10992 10990 10988 10987 10985 10982 10981 10980 10978
11005 11007 11010 11015 11018 11022 11025 11028 11029 11030 11030 11029 11028 11028 11026 11024 11023 11022 11020 11020 11020 11018 11017 11017 11015 11013 11010 11008 11006 11003 11001 11000 10998 10997 10995 10993 10992 10990 10989 10988 10987 10985 10983
11002 11004 11007 11010 11014 11019 11022 11025 11027 11028 11028 11029 11029 11028 11026 11025 11024 11023 11022 11022 11021 11022 11020 11019 11017 11015 11012 11010 11007 11005 11002 11001 10999 10998 10998 10995 10994 10993 10993 10992 10991 10990 10987
10995 11001 11005 11008 11013 11018 11020 11023 11025 11027 11028 11029 11028 11029 11027 11025 11024 11024 11024 11024 11024 11024 11023 11021 11019 11018 11015 11012 11008 11006 11004 11002 11000 11000 10999 10998 10997 10996 10995 10994 10995 10993 10990
10989 10997 11003 11006 11011 11017 11020 11023 11025 11026 11028 11029 11029 11029 11028 11027 11026 11025 11026 11026 11027 11026 11025 11023 11021 11020 11017 11015 11011 11008 11005 11002 11000 11000 11000 11000 10999 11000 10998 10996 10996 10995 10994
10984 10993 10998 11005 11010 11018 11019 11022 11024 11026 11028 11028 11030 11028 11028 11027 11027 11027 11028 11027 11028 11029 11028 11027 11023 11021 11018 11017 11013 11010 11007 11004 11000 10999 11000 11002 11001 11001 11000 10999 10999 10997 10997
10984 10993 10998 11006 11009 11015 11019 11022 11024 11026 11027 11028 11028 11028 11028 11028 11028 11028 11029 11029 11029 11029 11029 11029 11026 11023 11020 11019 11016 11012 11009 11005 11002 10999 11000 11001 11003 11003 11003 11002 11001 11000 11000
10983 10990 10998 11003 11008 11014 11018 11022 11024 11026 11027 11027 11028 11028 11027 11026 11027 11029 11030 11030 11029 11028 11029 11028 11026 11024 11021 11020 11017 11015 11013 11010 11006 11002 11001 11003 11003 11004 11003 11003 11003 11003 11003
10982 10989 10994 11001 11008 11014 11018 11021 11023 11025 11026 11026 11027 11028 11027 11025 11025 11027 11027 11029 11029 11029 11028 11026 11025 11023 11021 11019 11018 11017 11014 11012 11010 11007 11006 11004 11004 11004 11004 11005 11005 11005 11005
10981 10990 10997 11002 11009 11014 11018 11020 11023 11024 11025 11026 11026 11027 11027 11025 11025 11025 11026 11028 11029 11029 11028 11027 11025 11023 11021 11020 11018 11017 11014 11013 11012 11010 11008 11006 11005 11006 11005 11005 11006 11007 11006
10983 10991 10998 11003 11008 11013 11016 11019 11022 11023 11024 11024 11025 11026 11024 11024 11025 11025 11025 11026 11027 11027 11027 11026 11024 11022 11020 11019 11018 11017 11014 11013 11012 11011 11010 11007 11006 11005 11006 11006 11006 11006 11007
10984 10990 10998 11001 11006 11010 11014 11018 11020 11022 11023 11023 11024 11024 11023 11021 11022 11023 11024 11025 11025 11026 11026 11025 11023 11022 11020 11019 11018 11016 11013 11010 11011 11011 11010 11008 11008 11007 11006 11006 11007 11006 11006
10984 10989 10993 10999 11003 11008 11012 11015 11017 11020 11022 11022 11023 11022 11021 11018 11019 11021 11023 11024 11025 11024 11024 11023 11021 11020 11020 11019 11017 11014 11011 11008 11007 11009 11009 11009 11008 11008 11007 11007 11007 11007 11006
10985 10990 10994 10999 11002 11005 11010 11013 11015 11018 11019 11021 11021 11020 11019 11018 11019 11021 11021 11022 11022 11023 11022 11021 11019 11018 11018 11016 11014 11011 11007 11003 11003 11006 11007 11008 11009 11009 11008 11008 11008 11007 11006
10987 10991 10996 10999 11001 11004 11006 11010 11012 11015 11017 11019 11020 11019 11019 11018 11017 11018 11019 11018 11020 11020 11020 11019 11017 11015 11014 11013 11012 11009 11006 11001 11001 11003 11005 11007 11007 11008 11009 11009 11009 11008 11007
10988 10992 10996 10999 11002 11003 11005 11008 11011 11013 11015 11017 11018 11017 11017 11017 11016 11016 11017 11019 11018 11018 11018 11017 11016 11014 11012 11010 11009 11008 11004 11000 10999 11002 11005 11007 11007 11008 11009 11010 11009 11008 11008
10984 10989 10993 10996 10999 11002 11004 11006 11009 11011 11013 11015 11015 11015 11014 11015 11014 11015 11015 11017 11016 11016 11016 11015 11014 11012 11009 11007 11007 11006 11002 10999 10999 11002 11005 11007 11008 11008 11009 11010 11011 11010 11009
10982 10985 10989 10993 10996 10998 11001 11004 11005 11007 11009 11011 11011 11012 11012 11012 11013 11012 11013 11013 11013 11013 11013 11012 11011 11009 11006 11004 11004 11001 10999 10997 10997 11000 11003 11006 11008 11008 11009 11009 11009 11010 11010
10979 10981 10984 10988 10991 10994 10996 10999 11001 11003 11005 11007 11008 11009 11009 11010 11010 11010 11010 11010 11010 11010 11011 11010 11008 11006 11004 11002 11001 11000 10997 10996 10997 11000 11003 11005 11006 11007 11006 11007 11008 11008 11008
10980 10979 10979 10983 10986 10988 10991 10994 10997 11000 11002 11003 11004 11006 11008 11008 11008 11008 11008 11008 11009 11008 11008 11006 11005 11004 11001 11000 10999 10999 10998 10997 10998 10999 11000 11002 11003 11004 11003 11004 11005 11007 11006